Total_Precipitation_Accumulation
0.03 0.07 0.07 0.07 0.05 0.11 0.52 1.15 1.24 1.07 0.71 0.56 0.52 0.30 0.44 0.51 0.78 1.03 1.19 1.27 1.27 1.33 1.24 1.04 0.94 0.73 0.59 0.54 0.84 1.20 1.11 1.51
0.05 0.07 0.09 0.07 0.08 0.19 0.44 0.83 1.16 0.65 0.38 0.27 0.35 0.37 0.37 0.38 0.44 0.78 1.09 1.01 1.01 1.29 1.77 1.41 1.20 1.01 0.80 0.74 0.76 0.90 1.01 1.27
0.02 0.04 0.03 0.04 0.11 0.36 0.45 0.40 0.44 0.41 0.31 0.22 0.19 0.28 0.42 0.32 0.38 0.53 0.80 0.98 1.07 1.17 1.31 1.44 1.34 1.62 1.36 0.96 1.02 0.93 0.94 1.12
0.03 0.03 0.03 0.01 0.02 0.18 0.19 0.09 0.13 0.23 0.32 0.31 0.32 0.43 0.52 0.52 0.34 0.34 0.47 0.82 1.11 1.20 0.82 1.40 1.66 1.39 1.31 1.45 1.38 1.24 1.23 1.45
0.00 0.00 0.00 0.02 0.06 0.25 0.12 0.11 0.13 0.12 0.14 0.16 0.19 0.29 0.23 0.21 0.21 0.17 0.38 0.38 0.76 1.17 1.03 0.77 1.25 1.21 1.10 1.11 1.26 1.25 1.52 1.63
0.02 0.02 0.01 0.03 0.07 0.20 0.16 0.13 0.22 0.16 0.27 0.30 0.23 0.26 0.26 0.24 0.18 0.22 0.27 0.39 0.35 0.75 0.96 0.98 0.78 0.95 0.96 0.99 1.06 1.04 0.94 1.00
0.04 0.04 0.05 0.05 0.12 0.20 0.31 0.31 0.22 0.21 0.36 0.42 0.27 0.23 0.20 0.32 0.32 0.23 0.27 0.36 0.50 0.59 0.89 1.16 1.13 0.76 0.90 0.94 0.86 0.99 0.93 0.92
0.14 0.15 0.13 0.10 0.11 0.15 0.28 0.42 0.47 0.33 0.34 0.29 0.26 0.22 0.25 0.19 0.22 0.27 0.31 0.32 0.52 0.67 0.64 0.62 0.91 0.96 0.97 1.29 1.22 1.01 0.92 0.98
0.28 0.21 0.14 0.13 0.19 0.13 0.13 0.48 0.66 0.71 0.60 0.36 0.30 0.25 0.19 0.20 0.25 0.25 0.18 0.17 0.17 0.48 0.79 0.78 0.73 1.05 1.25 1.39 1.57 1.39 1.10 0.98
0.28 0.16 0.12 0.13 0.17 0.24 0.34 0.54 0.59 0.79 0.64 0.40 0.34 0.24 0.19 0.20 0.23 0.21 0.19 0.21 0.26 0.42 0.51 0.80 0.90 0.96 0.96 1.06 1.25 1.38 1.34 1.08
0.18 0.13 0.17 0.14 0.23 0.50 0.90 1.04 0.97 1.01 0.93 0.82 0.55 0.46 0.45 0.39 0.34 0.35 0.38 0.38 0.40 0.42 0.43 0.42 0.58 0.71 0.70 0.69 0.82 1.19 1.44 1.16
0.16 0.09 0.15 0.16 0.28 0.39 0.52 0.86 1.41 1.71 1.56 1.30 0.98 0.75 1.07 1.09 0.81 0.78 0.73 0.62 0.59 0.55 0.51 0.52 0.39 0.38 0.46 0.41 0.44 0.77 1.26 1.50
0.14 0.11 0.10 0.11 0.13 0.20 0.37 0.49 0.71 1.04 1.24 1.62 2.02 1.72 1.45 1.56 1.46 1.35 1.30 0.93 0.79 0.74 0.66 0.62 0.54 0.54 0.51 0.42 0.36 0.60 0.93 1.40
0.19 0.16 0.18 0.18 0.17 0.23 0.36 0.46 0.70 0.94 1.11 1.21 1.72 1.81 2.11 1.65 1.58 1.65 1.39 1.07 0.85 0.80 0.74 0.72 0.58 0.59 0.54 0.48 0.43 0.48 0.84 1.15
0.20 0.26 0.37 0.45 0.49 0.57 0.57 0.65 0.72 1.02 1.05 1.25 1.12 1.33 1.66 1.90 1.40 1.29 1.24 1.20 1.03 0.85 0.76 0.85 1.02 0.94 0.74 0.67 0.63 0.82 0.85 1.03
0.22 0.28 0.39 0.48 0.62 0.60 0.63 0.70 0.70 0.76 0.88 1.00 1.18 1.36 1.44 1.81 1.51 1.44 1.32 1.30 1.60 1.30 1.13 0.84 0.75 0.76 0.87 0.97 0.97 0.83 0.89 1.02
0.18 0.16 0.24 0.30 0.34 0.44 0.49 0.65 0.87 0.87 0.91 0.98 1.60 1.27 1.32 1.31 1.67 1.61 1.68 1.24 1.38 1.58 1.44 1.20 1.09 0.98 1.56 1.41 1.20 1.08 1.01 0.86
0.31 0.25 0.31 0.36 0.40 0.45 0.53 0.71 0.79 0.90 0.92 1.17 1.23 1.54 1.58 1.46 1.26 1.39 1.58 1.83 1.66 1.53 1.89 1.83 1.71 1.84 1.99 1.90 1.80 1.42 1.37 1.43
0.43 0.46 0.44 0.59 0.62 0.54 0.70 0.75 0.89 1.06 1.31 1.25 1.30 1.15 1.32 1.41 1.62 1.48 1.49 1.89 1.98 2.05 1.81 2.17 2.04 1.99 2.60 2.24 1.89 1.65 1.76 1.85